Tracking 28908 objects as of 21-May-2024
HD Live streaming from Space Station
objects crossing your sky now

BREEZE-M R/B

Track BREEZE-M R/B now!


NORAD ID: 28869
Int'l Code: 2005-036B
Perigee: 3,179.0 km
Apogee: 35,475.6 km
Inclination: 10.5 °
Period: 683.3 minutes
Semi major axis: 25698 km
RCS: 6.7821 m2 (large)
Launch date: September 8, 2005
Source: Commonwealth of Independent States (former USSR) (CIS)
Launch site: TYURATAM MISSILE AND SPACE COMPLEX (TTMTR)

Note: This is a ROCKET BODY
Your satellite tracking list
Your tracking list is empty




NASA's NSSDC Master Catalog

Two Line Element Set (TLE):
1 28869U 05036B   24140.97972250 -.00000294  00000-0  00000-0 0  9995
2 28869  10.5345 336.6146 6283795 253.4500  32.3702  2.10739807143902
Source of the keplerian elements: AFSPC